TimeCST,TemperatureF,Dew PointF,Humidity,Sea Level PressureIn,VisibilityMPH,Wind Direction,Wind SpeedMPH,Gust SpeedMPH,PrecipitationIn,Events,Conditions,WindDirDegrees,DateUTC
12:54 AM,64.9,62.1,90,29.95,9.0,South,13.8,-,N/A,,Overcast,190,2013-01-12 06:54:00
1:54 AM,66.0,63.0,90,29.96,7.0,South,9.2,-,N/A,,Overcast,190,2013-01-12 07:54:00
2:54 AM,66.0,63.0,90,29.95,7.0,South,6.9,-,N/A,,Overcast,190,2013-01-12 08:54:00
3:45 AM,66.2,64.4,94,29.94,2.0,South,5.8,-,N/A,,Overcast,190,2013-01-12 09:45:00
3:54 AM,64.9,64.0,97,29.94,2.0,South,6.9,-,N/A,,Overcast,190,2013-01-12 09:54:00
4:45 AM,66.2,64.4,94,29.93,1.0,South,8.1,-,N/A,,Overcast,180,2013-01-12 10:45:00
4:54 AM,66.9,64.9,93,29.93,1.0,South,9.2,-,N/A,,Overcast,170,2013-01-12 10:54:00
5:42 AM,66.2,64.4,94,29.94,2.0,South,8.1,-,N/A,,Overcast,170,2013-01-12 11:42:00
5:54 AM,66.0,64.9,96,29.94,2.0,South,5.8,-,N/A,,Overcast,170,2013-01-12 11:54:00
6:28 AM,66.2,64.4,94,29.95,4.0,South,5.8,-,0.00,,Overcast,170,2013-01-12 12:28:00
6:51 AM,66.2,64.4,94,29.95,4.0,South,3.5,-,0.00,Rain,Light Rain,190,2013-01-12 12:51:00
6:54 AM,66.0,64.9,96,29.95,3.0,SSW,3.5,-,0.00,Rain,Light Rain,200,2013-01-12 12:54:00
7:43 AM,66.2,64.4,94,29.95,4.0,SSE,5.8,-,0.00,Rain,Light Rain,150,2013-01-12 13:43:00
7:52 AM,66.2,64.4,94,29.95,5.0,SSE,6.9,-,0.00,,Overcast,150,2013-01-12 13:52:00
7:54 AM,66.9,64.9,93,29.94,5.0,SSE,6.9,-,0.00,,Overcast,150,2013-01-12 13:54:00
8:24 AM,66.2,64.4,94,29.96,2.0,SE,6.9,-,0.01,Rain,Light Rain,140,2013-01-12 14:24:00
8:37 AM,66.2,64.4,94,29.96,2.0,SE,6.9,-,0.01,,Light Drizzle,140,2013-01-12 14:37:00
8:48 AM,66.2,64.4,94,29.96,3.0,SSE,9.2,-,0.01,Rain,Light Rain,150,2013-01-12 14:48:00
8:54 AM,66.9,64.9,93,29.95,1.0,SSE,10.4,-,0.01,Rain,Light Rain,150,2013-01-12 14:54:00
9:09 AM,68.0,66.2,94,29.95,2.0,SSE,10.4,-,0.02,Rain,Light Rain,160,2013-01-12 15:09:00
9:54 AM,68.0,66.0,93,29.94,2.0,SSE,10.4,-,0.02,,Light Drizzle,160,2013-01-12 15:54:00
10:41 AM,69.8,66.2,88,29.93,6.0,South,16.1,20.7,0.00,,Light Drizzle,170,2013-01-12 16:41:00
10:49 AM,69.8,66.2,88,29.93,6.0,South,18.4,25.3,0.00,,Light Drizzle,180,2013-01-12 16:49:00
10:54 AM,69.1,66.9,93,29.91,7.0,South,16.1,25.3,0.00,,Overcast,180,2013-01-12 16:54:00
11:24 AM,69.8,66.2,88,29.91,1.5,South,16.1,-,0.01,Rain,Light Rain,190,2013-01-12 17:24:00
11:35 AM,69.8,66.2,88,29.91,1.5,South,19.6,25.3,0.12,Rain,Heavy Rain,180,2013-01-12 17:35:00
11:54 AM,68.0,64.4,88,29.90,2.0,SSW,15.0,29.9,N/A,Rain,Light Rain,200,2013-01-12 17:54:00
11:57 AM,69.8,66.2,88,29.90,7.0,SSW,20.7,26.5,0.00,Rain,Light Rain,200,2013-01-12 17:57:00
12:54 PM,70.0,66.0,87,29.86,10.0,South,15.0,21.9,0.01,,Overcast,190,2013-01-12 18:54:00
1:54 PM,71.1,66.0,84,29.85,10.0,South,19.6,25.3,N/A,,Overcast,190,2013-01-12 19:54:00
2:54 PM,72.0,64.9,78,29.83,10.0,South,17.3,24.2,N/A,,Overcast,180,2013-01-12 20:54:00
3:00 PM,71.6,64.4,78,29.84,10.0,South,19.6,25.3,N/A,,Overcast,180,2013-01-12 21:00:00
3:25 PM,71.6,64.4,78,29.83,10.0,South,18.4,25.3,N/A,,Overcast,180,2013-01-12 21:25:00
3:54 PM,73.0,64.0,73,29.82,10.0,South,19.6,28.8,N/A,,Overcast,180,2013-01-12 21:54:00
3:57 PM,71.6,64.4,78,29.82,10.0,South,17.3,28.8,N/A,,Overcast,180,2013-01-12 21:57:00
4:54 PM,71.1,64.0,78,29.80,10.0,South,12.7,-,N/A,,Overcast,170,2013-01-12 22:54:00
5:54 PM,71.1,63.0,75,29.77,10.0,South,11.5,20.7,N/A,,Mostly Cloudy,170,2013-01-12 23:54:00
6:54 PM,71.1,63.0,75,29.80,10.0,SSW,12.7,-,N/A,,Mostly Cloudy,200,2013-01-13 00:54:00
7:21 PM,69.8,62.6,78,29.81,10.0,South,12.7,-,N/A,,Overcast,190,2013-01-13 01:21:00
7:42 PM,71.6,62.6,73,29.79,10.0,South,15.0,-,N/A,,Mostly Cloudy,170,2013-01-13 01:42:00
7:54 PM,71.1,63.0,75,29.78,10.0,South,13.8,-,N/A,,Overcast,170,2013-01-13 01:54:00
8:19 PM,71.6,62.6,73,29.79,10.0,South,12.7,21.9,N/A,,Overcast,180,2013-01-13 02:19:00
8:54 PM,71.1,63.0,75,29.76,10.0,South,13.8,-,N/A,,Overcast,170,2013-01-13 02:54:00
9:15 PM,71.6,62.6,73,29.78,10.0,South,11.5,20.7,N/A,,Overcast,190,2013-01-13 03:15:00
9:44 PM,69.8,62.6,78,29.77,10.0,South,12.7,-,N/A,,Overcast,190,2013-01-13 03:44:00
9:54 PM,70.0,63.0,78,29.75,10.0,South,15.0,-,N/A,,Overcast,180,2013-01-13 03:54:00
10:35 PM,69.8,62.6,78,29.76,10.0,South,16.1,-,N/A,,Overcast,180,2013-01-13 04:35:00
10:54 PM,70.0,63.0,78,29.75,10.0,South,17.3,25.3,N/A,,Overcast,180,2013-01-13 04:54:00
11:24 PM,69.8,62.6,78,29.76,10.0,South,18.4,-,N/A,,Overcast,190,2013-01-13 05:24:00
11:54 PM,71.1,63.0,75,29.74,10.0,South,17.3,24.2,N/A,,Overcast,190,2013-01-13 05:54:00
11:58 PM,71.6,62.6,73,29.75,10.0,South,19.6,26.5,N/A,Thunderstorm,Thunderstorm,190,2013-01-13 05:58:00